Location: ?
(35.6144°N, 139.6873°E)
Time: 18:32:59
(UTC+00:00)

SPOT 3 Rocket - Pass Details

Date: 23 May 2024
Orbit: 777 x 792 km, 98.6° (Epoch: 21 June)

Event Time Altitude Azimuth Distance (km) Brightness Sun altitude
Exits shadow 11:35:38 29° 99° (E) 1,390 4.4 -19.0°
Maximum altitude 11:36:57 34° 70° (ENE) 1,272 4.4 -19.2°
Drops below altitude 10° 11:41:32 10° 7° (N) 2,333 6.5 -19.8°
Sets 11:44:01 0° 358° (N) 3,264 7.5 -20.2°
